Rutland, VT

6:25 AM EST on February 18, 2018 (GMT -0500)
Rutland State

Weather History for KRUT - May, 2013

Change the Weather History Date:

Wednesday, May 29, 2013

  Actual Average Record
Temperature  
Mean Temperature 61 °F -  
Max Temperature 66 °F - 92 °F (1987)
Min Temperature 55 °F - 28 °F (1977)
Degree Days  
Heating Degree Days 4    
Month to date heating degree days 268  
Since 1 July heating degree days 6828  
Cooling Degree Days 0    
Month to date cooling degree days 10  
Year to date cooling degree days 10  
Growing Degree Days 10 (Base 50)    
Moisture  
Dew Point 56 °F    
Average Humidity 76    
Maximum Humidity 97    
Minimum Humidity 55    
Precipitation  
Precipitation 0.07 in - 15.20 in (2007)
Month to date precipitation 2.73  
Year to date precipitation 7.24  
Sea Level Pressure  
Sea Level Pressure 30.03 in    
Wind  
Wind Speed 10 mph (SE)    
Max Wind Speed 15 mph    
Max Gust Speed 23 mph    
Visibility 10 miles    
Events Thunderstorm    
T = Trace of Precipitation, MM = Missing Value Source: NWS Daily Summary

Daily Weather History Graph

Daily Weather History Graph

Search for Another Location

Airport or City:

Trip Planner

Search our weather history database for the weather conditions in past years. The results will help you decide how hot, cold, wet, or windy it might be!

Date:

Astronomy

May. 29, 2013 Rise Set
Actual Time 5:15 AM EDT 8:23 PM EDT
Civil Twilight 4:40 AM EDT 8:58 PM EDT
Nautical Twilight 3:56 AM EDT 9:43 PM EDT
Astronomical Twilight 3:02 AM EDT 10:37 PM EDT
Moon No Moon Rise 10:15 AM EDT (5/29)
Length of Visible Light 16h 18m
Length of Day
15h 08m
Waning Gibbous, 73% of the Moon is Illuminated
May 29
Waning Gibbous
May 31
Last Quarter
Jun 8
New
Jun 16
First Quarter
Jun 23
Full

Hourly Weather History & Observations

Time (EDT) Temp. Dew Point Humidity Pressure Visibility Wind Dir Wind Speed Gust Speed Precip Events Conditions
12:15 AM 60.8 °F 42.8 °F 52% 30.12 in 10.0 mi SE 11.5 mph - N/A   Overcast
12:35 AM 60.8 °F 42.8 °F 52% 30.12 in 10.0 mi South 6.9 mph - N/A   Overcast
12:55 AM 60.8 °F 44.6 °F 55% 30.12 in 10.0 mi South 4.6 mph - N/A   Overcast
1:15 AM 59.0 °F 44.6 °F 59% 30.11 in 10.0 mi SE 9.2 mph - N/A   Overcast
1:35 AM 59.0 °F 46.4 °F 63% 30.11 in 10.0 mi SE 13.8 mph - N/A   Overcast
1:55 AM 59.0 °F 46.4 °F 63% 30.10 in 10.0 mi SE 13.8 mph - N/A   Overcast
2:15 AM 57.2 °F 48.2 °F 72% 30.09 in 10.0 mi SE 8.1 mph - N/A   Overcast
2:35 AM 55.4 °F 51.8 °F 88% 30.08 in 10.0 mi SE 9.2 mph - N/A   Overcast
2:55 AM 57.2 °F 51.8 °F 82% 30.07 in 10.0 mi South 9.2 mph - 0.01 in   Overcast
3:15 AM 57.2 °F 51.8 °F 82% 30.07 in 10.0 mi SE 10.4 mph - N/A   Overcast
3:35 AM 55.4 °F 51.8 °F 88% 30.07 in 10.0 mi SSE 6.9 mph - N/A   Overcast
3:55 AM 55.4 °F 51.8 °F 88% 30.07 in 10.0 mi SE 8.1 mph - N/A   Overcast
4:15 AM 57.2 °F 51.8 °F 82% 30.06 in 10.0 mi ESE 6.9 mph - N/A   Overcast
4:35 AM 57.2 °F 51.8 °F 82% 30.06 in 10.0 mi SE 10.4 mph - N/A   Overcast
4:55 AM 57.2 °F 51.8 °F 82% 30.07 in 10.0 mi SE 11.5 mph - N/A   Overcast
5:15 AM 55.4 °F 53.6 °F 94% 30.08 in 8.0 mi SSE 8.1 mph - 0.02 in   Overcast
5:35 AM 55.4 °F 53.6 °F 94% 30.07 in 10.0 mi SE 8.1 mph - 0.02 in   Overcast
5:55 AM 55.4 °F 53.6 °F 94% 30.08 in 10.0 mi SSE 5.8 mph - 0.02 in   Overcast
6:15 AM 55.4 °F 53.6 °F 94% 30.07 in 9.0 mi SE 9.2 mph - N/A   Overcast
6:35 AM 57.2 °F 53.6 °F 88% 30.07 in 10.0 mi SSE 8.1 mph - N/A   Overcast
6:55 AM 57.2 °F 53.6 °F 88% 30.07 in 10.0 mi SE 10.4 mph - N/A   Overcast
7:15 AM 57.2 °F 53.6 °F 88% 30.07 in 9.0 mi South 9.2 mph - 0.01 in   Overcast
7:35 AM 57.2 °F 53.6 °F 88% 30.07 in 10.0 mi SSE 6.9 mph - 0.01 in   Overcast
7:55 AM 57.2 °F 53.6 °F 88% 30.06 in 10.0 mi SE 12.7 mph 18.4 mph 0.01 in   Overcast
8:15 AM 57.2 °F 53.6 °F 88% 30.06 in 10.0 mi SE 12.7 mph - N/A   Overcast
8:35 AM 57.2 °F 53.6 °F 88% 30.06 in 10.0 mi SSE 11.5 mph - N/A   Overcast
8:55 AM 57.2 °F 53.6 °F 88% 30.07 in 10.0 mi SE 11.5 mph - N/A   Overcast
9:15 AM 57.2 °F 53.6 °F 88% 30.07 in 10.0 mi South 8.1 mph - N/A   Overcast
9:35 AM 57.2 °F 55.4 °F 94% 30.06 in 10.0 mi SE 12.7 mph 17.3 mph 0.01 in   Overcast
9:55 AM 57.2 °F 55.4 °F 94% 30.05 in 10.0 mi SE 12.7 mph - 0.01 in   Overcast
10:15 AM 59.0 °F 55.4 °F 88% 30.03 in 10.0 mi SE 12.7 mph 21.9 mph N/A   Overcast
10:35 AM 60.8 °F 55.4 °F 82% 30.03 in 10.0 mi SSE 9.2 mph - 0.01 in   Overcast
10:55 AM 60.8 °F 57.2 °F 88% 30.01 in 10.0 mi SE 13.8 mph 23.0 mph 0.01 in   Mostly Cloudy
11:15 AM 60.8 °F 55.4 °F 82% 30.02 in 10.0 mi SSE 5.8 mph 17.3 mph N/A   Overcast
11:35 AM 60.8 °F 55.4 °F 82% 30.03 in 10.0 mi SE 6.9 mph - N/A   Overcast
12:15 PM 60.8 °F 55.4 °F 82% 30.03 in 10.0 mi ESE 10.4 mph - N/A   Overcast
12:35 PM 60.8 °F 55.4 °F 82% 30.04 in 10.0 mi SE 10.4 mph - N/A   Overcast
12:55 PM 60.8 °F 57.2 °F 88% 30.03 in 10.0 mi ESE 10.4 mph - N/A   Overcast
1:15 PM 60.8 °F 57.2 °F 88% 30.03 in 10.0 mi ESE 12.7 mph - N/A   Overcast
1:35 PM 62.6 °F 57.2 °F 82% 30.02 in 10.0 mi ESE 11.5 mph - N/A   Overcast
1:55 PM 64.4 °F 59.0 °F 83% 30.02 in 10.0 mi ESE 11.5 mph - N/A   Overcast
2:15 PM 64.4 °F 59.0 °F 83% 30.02 in 10.0 mi SE 6.9 mph - N/A   Overcast
2:35 PM 64.4 °F 59.0 °F 83% 30.03 in 10.0 mi ESE 6.9 mph - N/A   Overcast
2:55 PM 66.2 °F 59.0 °F 78% 30.01 in 10.0 mi ESE 6.9 mph - N/A   Overcast
3:15 PM 66.2 °F 59.0 °F 78% 30.01 in 10.0 mi ESE 6.9 mph - N/A   Overcast
3:35 PM 64.4 °F 59.0 °F 83% 30.02 in 10.0 mi SE 8.1 mph - N/A   Overcast
3:55 PM 66.2 °F 60.8 °F 83% 30.01 in 10.0 mi SE 11.5 mph - N/A   Mostly Cloudy
4:15 PM 64.4 °F 59.0 °F 83% 30.01 in 10.0 mi ESE 12.7 mph - N/A   Mostly Cloudy
4:35 PM 64.4 °F 59.0 °F 83% 30.00 in 10.0 mi ESE 13.8 mph - N/A   Overcast
4:55 PM 64.4 °F 59.0 °F 83% 29.99 in 10.0 mi ESE 13.8 mph 18.4 mph N/A   Overcast
5:15 PM 62.6 °F 59.0 °F 88% 29.99 in 10.0 mi SE 12.7 mph 18.4 mph N/A   Overcast
5:35 PM 62.6 °F 59.0 °F 88% 29.98 in 10.0 mi SE 11.5 mph - N/A   Overcast
5:55 PM 64.4 °F 59.0 °F 83% 29.97 in 10.0 mi SE 15.0 mph - N/A   Overcast
6:15 PM 64.4 °F 60.8 °F 88% 29.96 in 10.0 mi SE 13.8 mph - N/A   Overcast
6:35 PM 64.4 °F 60.8 °F 88% 29.97 in 10.0 mi SE 13.8 mph - N/A   Mostly Cloudy
6:55 PM 64.4 °F 60.8 °F 88% 29.98 in 10.0 mi SE 12.7 mph - N/A   Overcast
7:15 PM 64.4 °F 60.8 °F 88% 29.98 in 7.0 mi SE 12.7 mph - N/A   Overcast
7:35 PM 64.4 °F 60.8 °F 88% 29.98 in 10.0 mi SE 11.5 mph - N/A   Overcast
7:55 PM 62.6 °F 60.8 °F 94% 29.98 in 10.0 mi SE 10.4 mph 17.3 mph 0.01 in Thunderstorm Mostly Cloudy
8:15 PM 62.6 °F 60.8 °F 94% 29.97 in 10.0 mi SE 10.4 mph - N/A   Mostly Cloudy
8:35 PM 62.6 °F 60.8 °F 94% 29.96 in 10.0 mi ESE 10.4 mph - N/A   Mostly Cloudy
8:55 PM 62.6 °F 60.8 °F 94% 29.97 in 10.0 mi ESE 8.1 mph - N/A   Scattered Clouds
9:15 PM 62.6 °F 60.8 °F 94% 29.97 in 10.0 mi East 5.8 mph - N/A   Partly Cloudy
9:35 PM 62.6 °F 60.8 °F 94% 29.97 in 10.0 mi ESE 10.4 mph - N/A   Clear
9:55 PM 62.6 °F 60.8 °F 94% 29.99 in 10.0 mi SSE 6.9 mph - N/A   Partly Cloudy
10:15 PM 62.6 °F 60.8 °F 94% 29.99 in 10.0 mi Calm Calm - N/A   Mostly Cloudy
10:35 PM 62.6 °F 60.8 °F 94% 30.00 in 10.0 mi SE 8.1 mph - N/A   Overcast
10:55 PM 60.8 °F 59.0 °F 94% 30.00 in 10.0 mi SE 6.9 mph - N/A   Mostly Cloudy
11:15 PM 60.8 °F 59.0 °F 94% 30.01 in 10.0 mi SSE 5.8 mph - N/A   Scattered Clouds
11:35 PM 62.6 °F 60.8 °F 94% 30.02 in 10.0 mi SSW 3.5 mph - N/A   Mostly Cloudy
11:55 PM 64.4 °F 60.8 °F 88% 30.02 in 10.0 mi SW 8.1 mph - N/A   Overcast